Hourly Data Report for November 21, 2006

TORONTO CITY
ONTARIO

43°40'00.000" N
79°24'00.000" W
112.50 m
6158355
71508
XTO

Download Data

Hourly Data (November 2006)
Hourly Data Report for November 21, 2006
TIME
LST
Temp Definition
°C
Dew Point Definition
°C
Rel Hum Definition
%
Precip. Amount Definition
mm

Wind Dir Definition
10's deg

Wind Spd Definition
km/h
Visibility Definition
km
Stn Press Definition
kPa
Hmdx Definition


Wind Chill Definition


Weather Definition


00:00 0.5 -3.9 72   LegendMM LegendMM   101.63     LegendNANA
01:00 0.5 -4.1 71   LegendMM LegendMM   101.65     LegendNANA
02:00 0.5 -4.4 70   LegendMM LegendMM   101.69     LegendNANA
03:00 0.3 -4.7 69   LegendMM LegendMM   101.75     LegendNANA
04:00 -0.2 -5.0 70   LegendMM LegendMM   101.76     LegendNANA
05:00 -0.7 -4.9 73   LegendMM LegendMM   101.79     LegendNANA
06:00 -1.0 -4.7 76   LegendMM LegendMM   101.82     LegendNANA
07:00 -0.8 -4.2 78   LegendMM LegendMM   101.85     LegendNANA
08:00 -0.4 -3.8 78   LegendMM LegendMM   101.90     LegendNANA
09:00 1.7 -2.6 73   LegendMM LegendMM   101.98     LegendNANA
10:00 2.5 -2.1 72   LegendMM LegendMM   102.01     LegendNANA
11:00 3.4 -1.6 70   LegendMM LegendMM   102.03     LegendNANA
12:00 4.5 -0.9 68   LegendMM LegendMM   101.98     LegendNANA
13:00 5.0 -0.9 66   LegendMM LegendMM   101.93     LegendNANA
14:00 4.9 -0.8 67   LegendMM LegendMM   101.88     LegendNANA
15:00 5.0 -0.8 66   LegendMM LegendMM   101.84     LegendNANA
16:00 5.2 -0.6 66   LegendMM LegendMM   101.81     LegendNANA
17:00 5.0 0.0 70   LegendMM LegendMM   101.79     LegendNANA
18:00 5.0 0.9 75   LegendMM LegendMM   101.79     LegendNANA
19:00 5.2 0.8 73   LegendMM LegendMM   101.80     LegendNANA
20:00 4.7 0.9 76   LegendMM LegendMM   101.84     LegendNANA
21:00 4.4 0.8 77   LegendMM LegendMM   101.86     LegendNANA
22:00 4.0 1.0 81   LegendMM LegendMM   101.84     LegendNANA
23:00 3.8 1.4 84   LegendMM LegendMM   101.79     LegendNANA

Notes on Data Quality.

Legend

  • E = Estimated
  • M = Missing
  • NA = Not Available*
  • [empty] = Indicates an unobserved value
Date modified: